Hourly Data Report for May 23, 2020

TORONTO CITY
ONTARIO
Current Station Operator: ECCC - MSC

43°40'00.000" N
79°24'00.000" W
112.50 m
6158355
71508
XTO

Download Data

Hourly Data (May 2020)
Hourly Data Report for May 23, 2020
TIME
LST
Temp Definition
°C
Dew Point Definition
°C
Rel Hum Definition
%
Precip. Amount Definition
mm

Wind Dir Definition
10's deg

Wind Spd Definition
km/h
Visibility Definition
km
Stn Press Definition
kPa
Hmdx Definition


Wind Chill Definition


Weather Definition


00:00 16.0 9.4 65 0.0       100.24     LegendNANA
01:00 15.5 9.5 68 0.0       100.21     LegendNANA
02:00 15.8 10.6 71 0.0       100.21     LegendNANA
03:00 17.2 11.7 70 0.0       100.19     LegendNANA
04:00 16.9 11.4 70 0.0       100.19     LegendNANA
05:00 14.1 10.1 77 0.0       100.24     LegendNANA
06:00 14.8 11.3 80 0.0       100.26     LegendNANA
07:00 18.6 11.4 63 0.0       100.27     LegendNANA
08:00 21.3 10.0 48 0.0       100.32     LegendNANA
09:00 20.9 9.9 49 0.0       100.39     LegendNANA
10:00 20.5 8.6 46 0.0       100.48     LegendNANA
11:00 23.6 8.5 38 0.0       100.48     LegendNANA
12:00 22.4 10.1 46 0.3       100.49     LegendNANA
13:00 24.2 12.1 47 0.0       100.47 27   LegendNANA
14:00 23.5 9.1 40 0.2       100.43     LegendNANA
15:00 23.4 10.1 43 0.3       100.39 25   LegendNANA
16:00 23.0 10.5 45 0.2       100.35 25   LegendNANA
17:00 23.4 12.0 49 0.0       100.36 26   LegendNANA
18:00 22.6 12.6 53 0.2       100.35 25   LegendNANA
19:00 21.7 12.1 54 0.0       100.35     LegendNANA
20:00 20.8 12.6 59 0.0       100.36     LegendNANA
21:00 20.5 13.0 62 0.0       100.39     LegendNANA
22:00 19.6 12.7 65 0.0       100.44     LegendNANA
23:00 18.4 12.8 70 0.0       100.44     LegendNANA

Notes on Data Quality.

Legend

  • E = Estimated
  • M = Missing
  • NA = Not Available*
  • [empty] = Indicates an unobserved value
Date modified: